TimeEDT,TemperatureF,Dew PointF,Humidity,Sea Level PressureIn,VisibilityMPH,Wind Direction,Wind SpeedMPH,Gust SpeedMPH,PrecipitationIn,Events,Conditions,WindDirDegrees,DateUTC
12:56 AM,71.1,59.0,66,30.32,10.0,NE,9.2,-,N/A,,Partly Cloudy,50,2013-08-25 04:56:00
1:56 AM,71.1,57.0,61,30.30,10.0,NE,12.7,-,N/A,,Partly Cloudy,50,2013-08-25 05:56:00
2:56 AM,70.0,57.0,63,30.30,10.0,ENE,6.9,-,N/A,,Partly Cloudy,60,2013-08-25 06:56:00
3:56 AM,69.1,57.0,65,30.29,10.0,ENE,8.1,-,N/A,,Partly Cloudy,70,2013-08-25 07:56:00
4:56 AM,69.1,57.0,65,30.30,10.0,ENE,8.1,-,N/A,,Partly Cloudy,70,2013-08-25 08:56:00
5:56 AM,66.0,55.9,70,30.31,10.0,NE,6.9,-,N/A,,Scattered Clouds,50,2013-08-25 09:56:00
6:56 AM,66.9,57.0,70,30.34,10.0,NE,8.1,-,N/A,,Scattered Clouds,40,2013-08-25 10:56:00
7:56 AM,71.1,59.0,66,30.36,10.0,NE,10.4,-,N/A,,Scattered Clouds,50,2013-08-25 11:56:00
8:56 AM,73.9,60.1,62,30.37,10.0,NE,12.7,-,N/A,,Scattered Clouds,40,2013-08-25 12:56:00
9:56 AM,75.0,59.0,57,30.39,10.0,NE,12.7,-,N/A,,Scattered Clouds,40,2013-08-25 13:56:00
10:56 AM,75.0,57.9,55,30.39,10.0,ENE,12.7,-,N/A,,Mostly Cloudy,60,2013-08-25 14:56:00
11:56 AM,75.9,60.1,58,30.39,10.0,NE,11.5,-,N/A,,Mostly Cloudy,50,2013-08-25 15:56:00
12:56 PM,75.9,59.0,56,30.38,10.0,ENE,11.5,-,N/A,,Mostly Cloudy,60,2013-08-25 16:56:00
1:56 PM,77.0,59.0,54,30.38,10.0,ENE,13.8,18.4,N/A,,Mostly Cloudy,60,2013-08-25 17:56:00
2:56 PM,75.9,57.9,54,30.35,10.0,ENE,11.5,18.4,N/A,,Mostly Cloudy,60,2013-08-25 18:56:00
3:56 PM,75.9,57.0,52,30.33,10.0,ENE,8.1,-,N/A,,Mostly Cloudy,60,2013-08-25 19:56:00
4:56 PM,75.9,57.0,52,30.34,10.0,NNE,11.5,-,N/A,,Scattered Clouds,20,2013-08-25 20:56:00
5:56 PM,75.0,55.9,51,30.33,10.0,ENE,10.4,-,N/A,,Scattered Clouds,70,2013-08-25 21:56:00
6:56 PM,73.0,55.9,55,30.31,10.0,ENE,5.8,-,N/A,,Mostly Cloudy,70,2013-08-25 22:56:00
7:56 PM,70.0,55.9,61,30.31,10.0,ENE,5.8,-,N/A,,Mostly Cloudy,70,2013-08-25 23:56:00
8:56 PM,69.1,57.0,65,30.31,10.0,ENE,3.5,-,N/A,,Mostly Cloudy,70,2013-08-26 00:56:00
9:56 PM,63.0,57.0,81,30.31,10.0,Calm,Calm,-,N/A,,Mostly Cloudy,0,2013-08-26 01:56:00
10:56 PM,63.0,57.0,81,30.32,10.0,Calm,Calm,-,N/A,,Mostly Cloudy,0,2013-08-26 02:56:00
11:56 PM,62.1,57.0,84,30.32,10.0,Calm,Calm,-,N/A,,Mostly Cloudy,0,2013-08-26 03:56:00